Location: Ellerstadt
(49.4644°N, 8.2615°E)
Time: 11:24:10
(UTC+00:00)

IRIDIUM 100 - Pass Details

Date: 26 September 2021
Orbit: 776 x 779 km, 86.4° (Epoch: 18 October)

Event Time Altitude Azimuth Distance (km) Brightness Sun altitude
Exits shadow 01:55:11 22° 337° (NNW) 1,640 ? -31.4°
Drops below altitude 10° 01:57:18 10° 351° (N) 2,342 ? -31.1°
Sets 01:59:49 0° 359° (N) 3,274 ? -30.8°
